Find Starlink 32296

NORAD ID: 61524 Int'l Des: 2024-183 Owner: SPXS Country: US Constellation: starlink operational
LEOCIRCULAR

リアルタイム位置

3D地球を読み込み中...

Starlink 32296について

説明を読み込み中...

次回通過

Passes for default location (London). Set your location on the main map for personalized predictions.

高度履歴

Loading altitude history...

軌道要素

1 61524U 24183R 26139.26456815 .00000896 00000-0 40624-4 0 9997
2 61524 53.1605 174.2084 0001096 91.1517 268.9610 15.31701500 90460
Epoch: May 19, 2026 • Age: 6 hours

現在のステータス

高度 487.1 km
速度 7.62 km/s
衛星直下点 -46.01°S, 60.31°E
打ち上げ日 Oct 15, 2024
運用期間 1.5 years
タイプ internet

技術仕様

分類 Payload
質量 730.00 kg
乾燥質量 700.00 kg
総質量 730.00 kg
長さ 0.30 m
直径 4.10 m
スパン 29.00 m
形状 Box + pan
製造者 SPXS
バスタイプ Starlink V2M
フェーズステータス In Orbit
所有者/国 SPXS/US

Most Searched